• In Portugal
  • List of Countries
  • For 7 days
  • Water Temperature
  • Satellite Maps
  • Weather Map
  • Weather Widgets
  • user-avatar
    Login

    Hourly Weather Halhgol

    Today, 23 October, Monday

    Time Temperature Precipitation Wind Pressure Humidity
    00:00 +2°C° 0 mm 1 mps 707 mmHg 55%
    01:00 +2°C° 0 mm 1 mps 707 mmHg 55%
    02:00 +1°C° 0 mm 1 mps 707 mmHg 55%
    03:00 +1°C° 0 mm 1 mps 707 mmHg 56%
    04:00 +1°C° 0 mm 1 mps 707 mmHg 56%
    05:00 -1°C° 0 mm 2 mps 706 mmHg 57%
    06:00 +1°C° 0 mm 2 mps 706 mmHg 55%
    07:00 +1°C° 0 mm 2 mps 707 mmHg 54%
    08:00 +2°C° 0 mm 2 mps 707 mmHg 51%
    09:00 +3°C° 0 mm 3 mps 707 mmHg 47%
    10:00 +4°C° 0 mm 3 mps 706 mmHg 44%
    11:00 +6°C° 0 mm 4 mps 706 mmHg 40%
    12:00 +7°C° 0 mm 4 mps 705 mmHg 41%
    13:00 +7°C° 0 mm 4 mps 705 mmHg 43%
    14:00 +7°C° 0 mm 4 mps 705 mmHg 43%
    15:00 +6°C° 0 mm 4 mps 704 mmHg 48%
    16:00 +5°C° 0 mm 3 mps 704 mmHg 54%
    17:00 +4°C° 0 mm 3 mps 704 mmHg 59%
    18:00 +3°C° 0 mm 3 mps 704 mmHg 62%
    19:00 +3°C° 0 mm 4 mps 703 mmHg 64%
    20:00 +1°C° 0 mm 4 mps 703 mmHg 66%
    21:00 +1°C° 0 mm 4 mps 703 mmHg 67%
    22:00 +1°C° 0 mm 4 mps 703 mmHg 68%
    23:00 +1°C° 0 mm 5 mps 703 mmHg 68%

    Tomorrow, 24 October, Tuesday

    Time Temperature Precipitation Wind Pressure Humidity
    00:00 +1°C° 0 mm 5 mps 702 mmHg 68%
    01:00 +1°C° 0 mm 5 mps 702 mmHg 67%
    02:00 +1°C° 0 mm 5 mps 702 mmHg 67%
    03:00 +1°C° 0 mm 5 mps 702 mmHg 67%
    04:00 0°C° 0 mm 5 mps 701 mmHg 67%
    05:00 0°C° 0 mm 5 mps 701 mmHg 67%
    06:00 0°C° 0 mm 5 mps 701 mmHg 67%
    07:00 +1°C° 0 mm 5 mps 702 mmHg 68%
    08:00 +1°C° 0 mm 5 mps 702 mmHg 68%
    09:00 +2°C° 0 mm 5 mps 702 mmHg 65%
    10:00 +5°C° 0 mm 5 mps 703 mmHg 61%
    11:00 +6°C° 0 mm 5 mps 703 mmHg 58%
    12:00 +7°C° 0 mm 5 mps 703 mmHg 56%
    13:00 +7°C° 0 mm 5 mps 703 mmHg 54%
    14:00 +8°C° 0 mm 5 mps 703 mmHg 53%
    15:00 +7°C° 0 mm 4 mps 703 mmHg 55%
    16:00 +7°C° 0 mm 3 mps 704 mmHg 58%
    17:00 +5°C° 0 mm 3 mps 704 mmHg 60%
    18:00 +4°C° 0 mm 3 mps 705 mmHg 61%
    19:00 +3°C° 0 mm 3 mps 705 mmHg 61%
    20:00 +3°C° 0 mm 3 mps 706 mmHg 62%
    21:00 +3°C° 0 mm 2 mps 706 mmHg 62%
    22:00 +3°C° 0 mm 2 mps 706 mmHg 61%
    23:00 +3°C° 0 mm 1 mps 706 mmHg 61%

    Day after tomorrow, 25 October, Wednesday

    Time Temperature Precipitation Wind Pressure Humidity
    00:00 +3°C° 0 mm 1 mps 707 mmHg 60%
    01:00 +2°C° 0 mm 1 mps 707 mmHg 58%
    02:00 +2°C° 0 mm 1 mps 707 mmHg 57%
    03:00 +2°C° 0 mm 1 mps 707 mmHg 56%
    04:00 +1°C° 0 mm 2 mps 707 mmHg 56%
    05:00 +1°C° 0 mm 2 mps 707 mmHg 55%
    06:00 +1°C° 0 mm 3 mps 707 mmHg 54%
    07:00 +1°C° 0 mm 3 mps 707 mmHg 52%
    08:00 +2°C° 0 mm 3 mps 707 mmHg 51%
    09:00 +4°C° 0 mm 3 mps 707 mmHg 47%
    10:00 +5°C° 0 mm 4 mps 706 mmHg 43%
    11:00 +7°C° 0 mm 5 mps 706 mmHg 38%
    12:00 +8°C° 0 mm 5 mps 705 mmHg 38%
    13:00 +9°C° 0 mm 5 mps 704 mmHg 38%
    14:00 +10°C° 0 mm 5 mps 703 mmHg 38%
    15:00 +8°C° 0 mm 4 mps 703 mmHg 45%
    16:00 +7°C° 0 mm 4 mps 702 mmHg 51%
    17:00 +7°C° 0 mm 3 mps 702 mmHg 58%
    18:00 +5°C° 0 mm 3 mps 702 mmHg 61%
    19:00 +5°C° 0 mm 3 mps 702 mmHg 64%
    20:00 +4°C° 0 mm 3 mps 702 mmHg 67%
    21:00 +4°C° 0 mm 3 mps 701 mmHg 68%
    22:00 +3°C° 0 mm 3 mps 701 mmHg 69%
    23:00 +4°C° 0 mm 2 mps 701 mmHg 70%

    26 October, Thursday

    Time Temperature Precipitation Wind Pressure Humidity
    00:00 +4°C° 0 mm 2 mps 701 mmHg 71%
    01:00 +3°C° 0 mm 2 mps 701 mmHg 72%
    02:00 +3°C° 0 mm 2 mps 701 mmHg 73%
    03:00 +3°C° 0 mm 2 mps 700 mmHg 73%
    04:00 +3°C° 0 mm 2 mps 700 mmHg 74%
    05:00 +2°C° 0 mm 2 mps 700 mmHg 74%
    06:00 +3°C° 0 mm 2 mps 700 mmHg 72%
    07:00 +3°C° 0 mm 2 mps 701 mmHg 71%
    08:00 +4°C° 0 mm 2 mps 701 mmHg 69%
    09:00 +5°C° 0 mm 2 mps 701 mmHg 62%
    10:00 +7°C° 0 mm 2 mps 701 mmHg 55%
    11:00 +9°C° 0 mm 2 mps 700 mmHg 49%
    12:00 +10°C° 0 mm 2 mps 700 mmHg 46%
    13:00 +12°C° 0 mm 2 mps 699 mmHg 43%
    14:00 +12°C° 0 mm 2 mps 699 mmHg 40%
    15:00 +10°C° 0 mm 2 mps 699 mmHg 44%
    16:00 +9°C° 0 mm 2 mps 698 mmHg 48%
    17:00 +8°C° 0 mm 2 mps 698 mmHg 51%
    18:00 +7°C° 0 mm 2 mps 698 mmHg 53%
    19:00 +7°C° 0 mm 3 mps 698 mmHg 56%
    20:00 +5°C° 0 mm 3 mps 698 mmHg 58%
    21:00 +5°C° 0 mm 4 mps 698 mmHg 65%
    22:00 +5°C° 0 mm 4 mps 697 mmHg 72%
    23:00 +5°C° 0 mm 5 mps 697 mmHg 80%

    27 October, Friday

    Time Temperature Precipitation Wind Pressure Humidity
    00:00 +5°C° 0 mm 5 mps 697 mmHg 83%
    01:00 +5°C° 0 mm 5 mps 696 mmHg 86%
    02:00 +4°C° 0 mm 6 mps 696 mmHg 90%
    03:00 +4°C° 0 mm 6 mps 696 mmHg 88%
    04:00 +3°C° 0 mm 6 mps 695 mmHg 86%
    05:00 +3°C° 0 mm 6 mps 695 mmHg 85%
    06:00 +4°C° 0 mm 6 mps 694 mmHg 78%
    07:00 +4°C° 0 mm 7 mps 694 mmHg 71%
    08:00 +4°C° 0 mm 7 mps 694 mmHg 64%
    09:00 +5°C° 0 mm 7 mps 694 mmHg 58%
    10:00 +6°C° 0 mm 7 mps 694 mmHg 51%
    11:00 +7°C° 0 mm 8 mps 694 mmHg 45%
    12:00 +5°C° 0 mm 8 mps 695 mmHg 51%
    13:00 +3°C° 0 mm 9 mps 696 mmHg 57%
    14:00 +1°C° 0 mm 9 mps 696 mmHg 63%
    15:00 0°C° 0 mm 8 mps 697 mmHg 59%
    16:00 -1°C° 0 mm 7 mps 699 mmHg 55%
    17:00 -2°C° 0 mm 6 mps 700 mmHg 51%
    18:00 -3°C° 0 mm 6 mps 701 mmHg 49%
    19:00 -3°C° 0 mm 6 mps 701 mmHg 46%
    20:00 -4°C° 0 mm 6 mps 702 mmHg 43%
    21:00 -4°C° 0 mm 6 mps 702 mmHg 43%
    22:00 -4°C° 0 mm 7 mps 702 mmHg 43%
    23:00 -4°C° 0 mm 7 mps 702 mmHg 42%

    28 October, Saturday

    Time Temperature Precipitation Wind Pressure Humidity
    00:00 -4°C° 0 mm 7 mps 702 mmHg 43%
    01:00 -5°C° 0 mm 8 mps 703 mmHg 44%
    02:00 -6°C° 0 mm 8 mps 703 mmHg 45%
    03:00 -6°C° 0 mm 8 mps 703 mmHg 44%
    04:00 -6°C° 0 mm 8 mps 704 mmHg 44%
    05:00 -7°C° 0 mm 8 mps 704 mmHg 44%
    06:00 -6°C° 0 mm 9 mps 705 mmHg 43%
    07:00 -6°C° 0 mm 9 mps 705 mmHg 42%
    08:00 -7°C° 0 mm 10 mps 706 mmHg 42%
    09:00 -5°C° 0 mm 10 mps 706 mmHg 39%
    10:00 -5°C° 0 mm 10 mps 706 mmHg 37%
    11:00 -4°C° 0 mm 10 mps 707 mmHg 34%
    12:00 -4°C° 0 mm 10 mps 707 mmHg 33%
    13:00 -4°C° 0 mm 10 mps 707 mmHg 32%
    14:00 -3°C° 0 mm 10 mps 707 mmHg 31%
    15:00 -4°C° 0 mm 8 mps 707 mmHg 35%
    16:00 -4°C° 0 mm 7 mps 707 mmHg 38%
    17:00 -4°C° 0 mm 5 mps 708 mmHg 42%
    18:00 -4°C° 0 mm 5 mps 708 mmHg 43%
    19:00 -5°C° 0 mm 5 mps 708 mmHg 45%
    20:00 -5°C° 0 mm 5 mps 708 mmHg 46%
    21:00 -5°C° 0 mm 5 mps 708 mmHg 47%
    22:00 -5°C° 0 mm 5 mps 709 mmHg 47%
    23:00 -5°C° 0 mm 5 mps 709 mmHg 48%

    29 October, Sunday

    Time Temperature Precipitation Wind Pressure Humidity
    00:00 -4°C° 0 mm 4 mps 709 mmHg 49%
    01:00 -5°C° 0 mm 4 mps 709 mmHg 51%
    02:00 -5°C° 0 mm 4 mps 709 mmHg 52%
    03:00 -5°C° 0 mm 4 mps 709 mmHg 54%
    04:00 -5°C° 0 mm 3 mps 709 mmHg 55%
    05:00 -5°C° 0 mm 3 mps 709 mmHg 57%
    06:00 -5°C° 0 mm 4 mps 709 mmHg 55%
    07:00 -5°C° 0 mm 4 mps 709 mmHg 54%
    08:00 -4°C° 0 mm 4 mps 709 mmHg 53%
    09:00 -4°C° 0 mm 5 mps 709 mmHg 49%
    10:00 -2°C° 0 mm 5 mps 709 mmHg 44%
    11:00 0°C° 0 mm 5 mps 709 mmHg 40%
    12:00 0°C° 0 mm 5 mps 708 mmHg 39%
    13:00 +1°C° 0 mm 6 mps 707 mmHg 38%
    14:00 +1°C° 0 mm 6 mps 707 mmHg 37%
    15:00 0°C° 0 mm 5 mps 706 mmHg 41%
    16:00 -1°C° 0 mm 4 mps 706 mmHg 45%
    17:00 -2°C° 0 mm 4 mps 705 mmHg 49%
    18:00 -2°C° 0 mm 4 mps 705 mmHg 48%
    19:00 -2°C° 0 mm 4 mps 705 mmHg 47%
    20:00 -2°C° 0 mm 5 mps 704 mmHg 46%
    21:00 -4°C° 0 mm 5 mps 704 mmHg 45%
    22:00 -4°C° 0 mm 5 mps 704 mmHg 43%
    23:00 -4°C° 0 mm 6 mps 703 mmHg 41%
    Show more